Regional Weather Roundup
Issued by NWS

Home | Current Version | Previous Version | Graphics & Text | Print | Product List | Glossary On
Versions: 1 2 3 4 5 6 7 8 9 10 11 12 13 14 15 16 17 18 19 20 21 22 23 24 25 26 27 28 29 30 31 32 33 34 35 36 37 38 39 40 41 42 43 44 45 46 47 48 49 50
000
ASUS43 KLMK 230110
RWRKY
KENTUCKY REGIONAL WEATHER ROUNDUP
NATIONAL WEATHER SERVICE LOUISVILLE KY
800 PM EST SAT NOV 22 2014

NOTE "FAIR" INDICATES FEW OR NO CLOUDS BELOW 12,000 FEET
WITH NO SIGNIFICANT WEATHER AND/OR OBSTRUCTIONS TO VISIBILITY.

KYZ001>023-026-027-061>063-070>075-230200-
WESTERN AND SOUTH CENTRAL KENTUCKY

CITY           SKY/WX    TMP DP  RH WIND       PRES   REMARKS
PADUCAH        CLOUDY    62  37  39 S8        30.03F
HENDERSON      PTCLDY    54  36  50 SE7       30.03F
OWENSBORO      MOCLDY    55  36  49 SE8       30.05F
HOPKINSVILLE   PTCLDY    57  33  39 S6        30.08S
BOWLING GREEN  MOCLDY    54  30  40 S3        30.11F
GLASGOW        CLEAR     53  30  40 CALM      30.11F
$$

KYZ024-025-028>034-038-045-046-053-230200-
NORTH CENTRAL KENTUCKY

CITY           SKY/WX    TMP DP  RH WIND       PRES   REMARKS
LOUISVILLE/SDF CLOUDY    57  33  40 S9        30.07F
LOUISVILLE/LOU MOCLDY    55  33  43 S3        30.09F
FORT KNOX      CLOUDY    51  34  51 SE7       30.07F
$$

KYZ035>037-039>044-047>052-055>060-089>105-230200-
NORTHEAST KENTUCKY

CITY           SKY/WX    TMP DP  RH WIND       PRES   REMARKS
LEXINGTON      PTCLDY    52  30  43 S10       30.12F
COVINGTON      MOCLDY    53  33  46 S9        30.09S
FRANKFORT      CLOUDY    52  31  44 S6        30.10S
$$

KYZ054-064>069-076>088-106>120-230200-
SOUTHEAST KENTUCKY

CITY           SKY/WX    TMP DP  RH WIND       PRES   REMARKS
JACKSON        CLEAR     52  28  39 VRB6      30.17S
LONDON         CLEAR     49  29  46 CALM      30.17F
SOMERSET       PTCLDY    52  32  46 S5        30.17S
MIDDLESBORO    CLEAR     38  32  80 CALM      30.22S
MONTICELLO     CLEAR     54  36  50 S9        30.18F
$$




USA.gov is the U.S. government's official web portal to all federal, state and local government web resources and services.